Zurück zum Katalog

COSMOS 2251 DEB

AktivLEO
NORAD 37499·DEBRIS·🇷🇺 Russia

Gestartet Jun 16, 1993 von Plesetsk Cosmodrome

Loading…

Nächste Überflüge (nächste 24 Stunden)

TLE

AktuellSource: Space-Track

Epoche: Sep 13, 2026, 18:53 UTC

1 37499U 93036BMC 26256.78734906  .00000213  00000-0  84231-4 0  9996
2 37499  74.0384 178.5670 0028256 192.4331 167.6127 14.34546084890938

Verfolge COSMOS 2251 DEB in Echtzeit mit AllMySat

Download on the App Store